Home > Weather > Santos > Past weeks

Flag for Brazil Weather for the Past 2 Weeks in Santos, São Paulo, Brazil

Now
82 °F

Broken clouds.


Feels Like: 85 °F
Forecast: 74 / 88 °F
Wind: 12 mph from Southeast

Location: Sao Paulo Airport

Current Time: Feb 7, 2016 at 4:26:33 PM

Latest Report: Feb 7, 2016 at 4:00 PM


Visibility: N/A

Pressure: 30.07 "Hg

Humidity: 58%

Dew point: 66 °F

Location of SantosLocation

Historic Weather in Santos — Graph

°F

Santos Temperature Yesterday

Maximum temperature yesterday: 84 °F (at 4:00 PM)
Minimum temperature yesterday: 70 °F (at 4:00 AM)
Average temperature yesterday: 75 °F

High & Low Weather Summary for the Past Weeks

 TemperatureHumidityPressure
High91 °F (Feb 5, 3:00 PM)89% (Jan 24, 3:00 PM)30.18 "Hg (Jan 24, 3:00 PM)
Low66 °F (Jan 23, 11:04 PM)27% (Jan 31, 3:00 PM)29.86 "Hg (Jan 26, 6:00 PM)
Average76 °F69%30.07 "Hg
* Reported Jan 23 3:00 PM — Feb 7 3:00 PM, Santos, Weather by CustomWeather, © 2016

Note: Actual official high and low records may vary slightly from our data, if they occured in-between our weather recording intervals... More about our weather records

Advertising

Santos Weather History for the Previous 24 Hours

 ConditionsComfort  
Time TempWeatherWind HumidityBarometerVisibility
3:00 PM
Sun, Feb 7
82 °FBroken clouds.8 mph58%30.09 "HgN/A
2:00 PM82 °FBroken clouds.10 mph62%30.12 "HgN/A
1:00 PM81 °FPartly sunny.5 mph54%30.15 "HgN/A
12:00 PM81 °FScattered clouds.7 mph62%30.18 "HgN/A
11:00 AM75 °FPassing clouds.3 mph74%30.18 "HgN/A
10:00 AM73 °FSunny.2 mph78%30.18 "Hg10 mi
9:00 AM72 °FScattered clouds.3 mph83%30.15 "HgN/A
8:00 AM72 °FPassing clouds.5 mph78%30.15 "HgN/A
7:00 AM70 °FSunny.5 mph83%30.12 "Hg10 mi
6:00 AM70 °FPassing clouds.6 mph83%30.12 "HgN/A
5:00 AM72 °FPassing clouds.5 mph78%30.09 "HgN/A
4:00 AM72 °FClear.5 mph78%30.09 "Hg10 mi
3:00 AM72 °FPassing clouds.5 mph78%30.12 "HgN/A
2:00 AM72 °FClear.7 mph78%30.15 "Hg10 mi
1:00 AM72 °FPassing clouds.7 mph78%30.18 "HgN/A
12:00 AM72 °FClear.8 mph83%30.15 "Hg10 mi
11:00 PM
Sat, Feb 6
73 °FPassing clouds.7 mph78%30.18 "HgN/A
10:00 PM73 °FPassing clouds.9 mph78%30.18 "HgN/A
9:00 PM73 °FPassing clouds.9 mph78%30.15 "HgN/A
8:00 PM73 °FPartly cloudy.9 mph78%30.15 "HgN/A
7:00 PM75 °FPartly sunny.14 mph78%30.12 "HgN/A
6:00 PM77 °FScattered clouds.18 mph74%30.09 "HgN/A
5:00 PM81 °FScattered clouds.9 mph66%30.09 "HgN/A
4:00 PM84 °FScattered clouds.10 mph55%30.12 "HgN/A
Weather by CustomWeather, © 2016

See weather overviewHow to use our weather pages